Total_Precipitation_Accumulation
0.22 0.30 0.69 0.86 0.98 0.98 0.89 0.81 0.76 0.75 0.76 0.79 0.81 0.78 0.76 0.76 0.80 0.75 0.74 0.73 0.77 0.85 0.95 0.96 0.91 0.80 0.69 0.65 0.60 0.55 0.52 0.49 0.46 0.43 0.37 0.41 0.49 0.51 0.44 0.46 0.54 0.55 0.67
0.21 0.31 0.65 0.83 0.95 0.90 0.88 0.81 0.75 0.72 0.76 0.85 0.92 0.92 0.85 0.80 0.79 0.76 0.72 0.75 0.79 0.90 1.04 1.01 0.90 0.74 0.56 0.45 0.41 0.41 0.39 0.32 0.28 0.18 0.13 0.18 0.28 0.40 0.44 0.44 0.49 0.56 0.61
0.20 0.29 0.59 0.84 0.95 0.94 0.93 0.86 0.79 0.75 0.80 0.91 1.01 1.00 0.91 0.80 0.78 0.79 0.73 0.73 0.79 0.91 0.96 0.91 0.78 0.64 0.50 0.41 0.34 0.32 0.29 0.22 0.17 0.10 0.10 0.17 0.26 0.40 0.41 0.46 0.54 0.58 0.63
0.24 0.31 0.54 0.91 1.01 0.99 0.96 0.92 0.87 0.82 0.80 0.88 1.00 0.96 0.91 0.86 0.86 0.80 0.77 0.79 0.82 0.83 0.78 0.74 0.64 0.55 0.44 0.37 0.32 0.30 0.25 0.20 0.13 0.09 0.18 0.24 0.29 0.48 0.54 0.55 0.61 0.62 0.63
0.33 0.39 0.64 0.98 1.10 1.05 1.01 0.94 0.95 0.95 0.92 0.92 0.94 0.95 0.91 0.86 0.88 0.85 0.79 0.79 0.77 0.78 0.72 0.63 0.53 0.44 0.37 0.34 0.31 0.30 0.25 0.19 0.12 0.12 0.21 0.29 0.42 0.67 0.72 0.68 0.68 0.63 0.57
0.42 0.58 0.82 1.08 1.18 1.16 1.09 1.02 1.03 1.07 1.12 1.08 1.04 1.00 0.99 0.93 0.94 0.93 0.82 0.71 0.70 0.70 0.68 0.59 0.49 0.43 0.36 0.32 0.33 0.31 0.27 0.19 0.13 0.16 0.22 0.31 0.47 0.78 0.80 0.73 0.71 0.69 0.66
0.49 0.72 1.00 1.24 1.30 1.27 1.20 1.16 1.18 1.25 1.28 1.26 1.21 1.17 1.10 1.05 1.02 0.94 0.79 0.69 0.69 0.69 0.68 0.64 0.53 0.46 0.41 0.35 0.38 0.36 0.25 0.16 0.14 0.19 0.26 0.33 0.52 0.79 0.81 0.76 0.79 0.81 0.79
0.76 0.98 1.24 1.46 1.45 1.32 1.22 1.17 1.17 1.28 1.32 1.27 1.20 1.23 1.24 1.19 1.11 1.00 0.85 0.76 0.77 0.80 0.81 0.73 0.63 0.53 0.46 0.40 0.38 0.34 0.21 0.13 0.14 0.16 0.23 0.31 0.53 0.77 0.84 0.79 0.83 0.88 0.89
1.27 1.43 1.53 1.60 1.53 1.49 1.33 1.19 1.14 1.19 1.26 1.26 1.21 1.17 1.18 1.20 1.21 1.09 0.97 0.93 0.88 0.89 0.86 0.79 0.70 0.63 0.55 0.48 0.37 0.28 0.19 0.13 0.13 0.13 0.15 0.24 0.49 0.81 0.97 0.94 0.95 1.00 0.95
1.75 1.87 1.91 1.88 1.76 1.63 1.49 1.28 1.16 1.17 1.20 1.22 1.20 1.09 0.99 1.05 1.14 1.06 0.92 0.93 0.92 0.90 0.83 0.75 0.72 0.72 0.65 0.56 0.39 0.25 0.19 0.16 0.15 0.16 0.19 0.29 0.59 0.94 1.09 1.06 1.07 1.05 1.01
2.12 2.17 2.26 2.23 2.07 1.93 1.69 1.36 1.26 1.28 1.28 1.21 1.17 1.03 1.01 1.05 1.07 0.98 0.86 0.80 0.79 0.82 0.78 0.74 0.74 0.72 0.66 0.59 0.44 0.28 0.23 0.19 0.16 0.17 0.22 0.40 0.72 0.96 1.07 1.05 1.09 0.99 0.88
2.29 2.35 2.40 2.44 2.40 2.30 2.05 1.74 1.59 1.45 1.39 1.26 1.13 1.10 1.03 1.06 1.12 1.03 0.97 0.85 0.77 0.75 0.74 0.77 0.80 0.76 0.65 0.58 0.49 0.34 0.26 0.23 0.23 0.21 0.25 0.44 0.71 0.94 1.07 1.05 1.03 0.97 0.84
2.48 2.56 2.59 2.68 2.62 2.49 2.24 1.94 1.74 1.65 1.59 1.48 1.31 1.23 1.15 1.16 1.16 1.18 1.15 1.07 0.92 0.79 0.81 0.79 0.76 0.64 0.58 0.54 0.53 0.40 0.31 0.27 0.28 0.27 0.31 0.43 0.67 0.99 1.14 1.12 1.03 0.99 0.90
2.63 2.59 2.66 2.76 2.75 2.61 2.37 2.17 1.89 1.79 1.76 1.70 1.56 1.48 1.43 1.33 1.27 1.18 1.10 1.08 1.07 0.91 0.91 0.88 0.73 0.60 0.57 0.52 0.52 0.49 0.41 0.36 0.34 0.35 0.35 0.43 0.63 0.91 1.08 1.09 1.06 1.04 1.02
2.57 2.66 2.78 2.75 2.71 2.71 2.61 2.35 2.07 1.94 1.86 1.82 1.86 1.72 1.62 1.53 1.43 1.40 1.26 1.16 1.08 1.06 1.05 1.02 0.91 0.81 0.72 0.65 0.59 0.55 0.50 0.44 0.39 0.39 0.39 0.38 0.46 0.66 0.89 1.03 1.15 1.18 1.17
2.30 2.58 2.76 2.79 2.73 2.68 2.70 2.60 2.27 1.96 1.91 1.90 1.89 1.91 1.86 1.75 1.64 1.56 1.45 1.38 1.26 1.18 1.15 1.13 1.03 1.05 1.03 0.91 0.77 0.67 0.60 0.53 0.46 0.42 0.40 0.41 0.46 0.53 0.70 0.92 1.08 1.23 1.35
2.05 2.33 2.59 2.82 2.85 2.72 2.67 2.72 2.65 2.33 2.05 1.87 1.83 1.88 1.93 1.86 1.77 1.70 1.67 1.53 1.34 1.28 1.30 1.30 1.25 1.23 1.18 1.08 0.94 0.86 0.79 0.72 0.63 0.55 0.50 0.47 0.49 0.54 0.63 0.79 0.97 1.15 1.38
1.91 2.12 2.34 2.50 2.72 2.74 2.66 2.64 2.69 2.56 2.35 2.13 1.92 1.86 1.84 1.80 1.80 1.79 1.76 1.73 1.57 1.49 1.49 1.45 1.39 1.33 1.22 1.15 1.05 0.99 0.93 0.88 0.83 0.79 0.73 0.64 0.60 0.55 0.62 0.75 0.87 1.05 1.27
1.79 2.03 2.32 2.31 2.44 2.70 2.90 2.81 2.66 2.57 2.41 2.27 2.08 1.87 1.79 1.85 1.90 1.85 1.72 1.70 1.73 1.63 1.55 1.56 1.52 1.45 1.35 1.28 1.22 1.14 1.06 1.01 0.94 0.92 0.92 0.86 0.80 0.73 0.68 0.74 0.79 0.85 1.08
1.78 1.97 2.26 2.30 2.40 2.64 2.93 2.98 2.89 2.72 2.49 2.38 2.18 1.93 1.80 1.79 1.91 1.87 1.74 1.74 1.80 1.73 1.58 1.51 1.46 1.46 1.42 1.45 1.42 1.30 1.19 1.12 1.07 1.02 0.97 0.96 0.93 0.88 0.80 0.74 0.72 0.76 0.92
1.89 1.94 2.12 2.28 2.39 2.51 2.65 2.64 2.55 2.57 2.55 2.49 2.33 2.17 2.04 1.95 1.96 1.99 1.89 1.88 1.89 1.81 1.71 1.70 1.70 1.62 1.53 1.53 1.53 1.37 1.27 1.21 1.11 1.05 1.01 0.91 0.86 0.88 0.88 0.84 0.75 0.71 0.76
1.79 1.87 2.07 2.25 2.32 2.33 2.45 2.62 2.55 2.61 2.70 2.75 2.68 2.46 2.30 2.20 2.15 2.09 2.10 2.14 2.09 1.99 1.90 1.83 1.83 1.79 1.68 1.66 1.67 1.62 1.43 1.36 1.20 1.02 0.97 0.91 0.86 0.84 0.85 0.91 0.90 0.79 0.71
1.66 1.89 2.02 2.14 2.27 2.32 2.55 2.96 2.92 2.82 2.77 2.80 2.82 2.72 2.54 2.41 2.35 2.25 2.19 2.27 2.28 2.16 2.05 1.97 1.90 1.84 1.84 1.80 1.73 1.83 1.61 1.33 1.19 1.09 0.99 0.91 0.90 0.90 0.88 0.89 0.93 0.90 0.80
1.47 1.73 2.02 2.16 2.32 2.52 2.76 2.98 3.01 2.76 2.60 2.58 2.62 2.71 2.73 2.50 2.43 2.41 2.37 2.35 2.38 2.35 2.18 2.10 2.04 1.98 1.97 1.93 1.84 1.66 1.56 1.36 1.28 1.16 1.03 0.99 0.97 0.92 0.89 0.88 0.89 0.93 0.94
1.33 1.50 1.77 2.06 2.20 2.47 2.70 2.84 3.01 2.79 2.52 2.56 2.57 2.56 2.65 2.59 2.41 2.39 2.36 2.28 2.25 2.27 2.30 2.26 2.12 2.06 1.98 1.85 1.76 1.63 1.54 1.36 1.20 1.19 1.05 0.95 0.98 0.95 0.90 0.89 0.93 0.96 0.99
1.16 1.29 1.45 1.69 1.84 2.00 2.23 2.48 2.69 2.73 2.65 2.56 2.43 2.40 2.44 2.44 2.40 2.36 2.37 2.27 2.15 2.09 2.08 2.17 2.19 2.08 2.01 1.89 1.76 1.67 1.58 1.48 1.31 1.29 1.24 1.04 1.00 0.98 0.96 0.95 0.92 0.94 0.97